This is the latest recevied weather packets stored in our database for station/object AA8FM-13. If no packets are shown the sender has not sent any weather packets the latest 10 day(s).
| Time | Temp. | Humidity | Pressure | Rain* | Wind** | Luminosity | Snow |
|---|---|---|---|---|---|---|---|
| 1778153012 | 8.89° C | 96% | 1010.8 hPa | 0 mm | - | 32 W/m² | - |
| 1778152711 | 8.89° C | 95% | 1010.9 hPa | 0 mm | - | 28 W/m² | - |
| 1778152407 | 8.33° C | 96% | 1010.9 hPa | 0 mm | - | 25 W/m² | - |
| 1778152103 | 8.33° C | 95% | 1010.6 hPa | 0 mm | - | 23 W/m² | - |
| 1778151799 | 8.33° C | 95% | 1010.8 hPa | 0 mm | - | 20 W/m² | - |
| 1778151496 | 8.33° C | 95% | 1010.9 hPa | 0 mm | - | 17 W/m² | - |
| 1778151193 | 8.33° C | 95% | 1010.6 hPa | 0 mm | - | 16 W/m² | - |
| 1778150890 | 7.78° C | 94% | 1010.7 hPa | 0 mm | - | 16 W/m² | - |
| 1778150586 | 8.33° C | 94% | 1010.4 hPa | 0 mm | - | 14 W/m² | - |
| 1778150282 | 7.78° C | 93% | 1010.3 hPa | 0 mm | - | 10 W/m² | - |
| 1778149978 | 8.33° C | 93% | 1010.3 hPa | 0 mm | - | 8 W/m² | - |
| 1778149675 | 8.33° C | 92% | 1010.3 hPa | 0 mm | - | 5 W/m² | - |
| 1778149372 | 8.33° C | 93% | 1010.6 hPa | 0 mm | - | 4 W/m² | - |
| 1778149068 | 8.33° C | 92% | 1010.5 hPa | 0 mm | - | 2 W/m² | - |
| 1778148762 | 8.89° C | 91% | 1010.3 hPa | 0 mm | - | 1 W/m² | - |
| 1778148461 | 8.89° C | 91% | 1010.4 hPa | 0 mm | - | 1 W/m² | - |
| 1778148159 | 8.89° C | 90% | 1010.2 hPa | 0 mm | - | 0 W/m² | - |
| 1778147857 | 8.89° C | 90% | 1010.4 hPa | 0 mm | - | 0 W/m² | - |
| 1778147552 | 8.89° C | 90% | 1010.3 hPa | 0 mm | - | 0 W/m² | - |
| 1778147250 | 8.89° C | 91% | 1010.4 hPa | 0 mm | - | 0 W/m² | - |
| 1778146946 | 8.89° C | 94% | 1010.3 hPa | 0 mm | - | 0 W/m² | - |
| 1778146643 | 8.89° C | 95% | 1010.1 hPa | 0 mm | - | 0 W/m² | - |
| 1778146342 | 9.44° C | 96% | 1010.3 hPa | 0 mm | - | 0 W/m² | - |
| 1778146039 | 9.44° C | 97% | 1010 hPa | 0 mm | - | 0 W/m² | - |
| 1778145735 | 9.44° C | 97% | 1010.1 hPa | 0 mm | - | 0 W/m² | - |
* Rain latest hour (hover to see other rain measurements)
** Current wind speed in m/s (hover to see current wind gust speed)